SCP
0 0 0 0 0 0 0 0 0 0 0 0 0 0 0 0 0 0 0 0 0 0 0 0 0 0 0 0 0 0 0 0 0 0 0 0 0 0 0 0 0 0 0 0
0 0 0 0 0 0 0 0 0 0 0 0 0 0 0 0 0 0 0 0 0 0 0 0 0 0 0 0 0 0 0 0 0 0 0 0 0 0 0 0 0 0 0 0
0 0 0 0 0 0 0 0 0 0 0 0 0 0 0 0 0 0 0 0 0 0 0 0 0 0 0 0 0 0 0 0 0 0 0 0 0 0 0 0 0 0 0 0
0 0 0 0 0 0 0 0 0 0 0 0 0 0 0 0 0 0 0 0 0 0 0 0 0 0 0 0 0 0 0 0 0 0 0 0 0 0 0 0 0 0 0 0
0 0 0 0 0 0 0 0 0 0 0 0 0 0 0 0 0 0 0 0 0 0 0 0 0 0 0 0 0 0 0 0 0 0 0 0 0 0 0 0 0 0 0 0
0 0 0 0 0 0 0 0 0 0 0 0 0 0 0 0 0 0 0 0 0 0 0 0 0 0 0 0 0 0 0 0 0 0 0 0 0 0 0 0 0 0 0 0
0 0 0 0 0 0 0 0 0 0 0 0 0 0 0 0 0 0 0 0 0 0 0 0 0 0 0 0 0 0 0 0 0 0 0 0 0 0 0 0 0 0 0 0
0 0 0 0 0 0 0 0 0 0 0 0 0 0 0 0 0 0 0 0 0 0 0 0 0 0 0 0 0 0 0 0 0 0 0 0 0 0 0 0 0 0 0 0
0 0 0 0 0 0 0 0 0 0 0 0 0 0 0 0 0 0 0 0 0 0 -0 0 0 0 0 0 0 0 0 0 0 0 0 0 0 0 0 0 0 0 0 0
0 0 0 0 0 0 0 0 0 0 0 0 0 0 0 0 0 0 0 0 0 0 0 0 0 0 0 0 0 0 0 0 0 0 0 0 0 0 0 0 0 0 0 0
0 0 0 0 0 0 0 0 0 0 0 0 0 0 0 0 0 0 0 0 0 0 0 -0 0 0 0 0 0 0 0 0 0 0 0 0 0 0 0 0 0 0 0 0
0 0 0 0 0 0 0 0 0 0 0 0 0 0 0 0 -0 -0 -0 0 0 0 0 -0 -0 0 0 0 0 0 0 0 0 0 0 0 0 0 0 0 0 0 0 0
0 0 0 0 0 0 0 0 0 0 0 0 0 0 0 0 -0 -0 -0 0 0 0 0 0 -0 -0 0 -0 0 0 0 0 0 0 0 0 0 0 0 0 0 0 0 0
0 0 0 0 0 0 0 0 0 0 0 0 0 0 0 0 0 -0 -0 0 0 0 0 0 0 0 0 0 0 0 0 0 -0 0 0 0 0 0 0 0 0 0 0 0
0 0 0 0 0 0 0 0 0 0 0 0 0 0 0 0 0 0 0 0 0 0 0 0 0 0 0 0 0 0 0 -0 -0 0 0 0 0 0 0 0 0 0 0 0
0 0 0 0 0 0 0 0 0 0 0 0 0 0 0 0 0 0 0 0 0 0 0 0 0 0 0 0 0 0 0 -0 -0 0 0 0 0 0 0 0 0 0 0 0
0 0 0 0 0 0 0 0 0 0 0 0 0 0 0 0 0 0 0 -0 0 0 0 0 0 0 0 0 0 0 0 -0 0 0 0 0 0 0 0 0 0 0 0 0
0 0 0 0 0 0 0 0 0 0 0 0 0 0 0 0 0 0 0 0 0 0 0 0 0 0 0 0 0 0 0 0 0 0 0 0 0 0 0 0 0 0 0 0
0 0 0 0 0 0 0 0 0 0 0 0 0 0 0 0 0 0 0 0 0 0 0 0 0 0 0 0 0 0 0 0 0 0 0 0 0 0 0 0 0 0 0 0
0 0 0 0 0 0 0 0 0 0 0 0 0 0 0 0 0 0 0 0 0 0 0 0 0 0 0 0 0 0 0 0 0 0 0 0 0 0 0 0 0 0 0 0
0 0 0 0 0 0 0 0 0 0 0 0 0 0 0 0 0 0 0 0 0 0 0 0 0 0 0 0 0 0 0 0 0 0 0 0 0 0 0 0 0 0 0 0
0 0 0 0 0 0 0 0 0 0 0 0 0 0 0 0 0 0 0 0 0 0 0 0 0 0 0 0 0 0 0 0 0 0 0 0 0 0 0 0 0 0 0 0
0 0 0 0 0 0 0 0 0 0 0 0 0 0 0 0 0 0 0 0 0 0 0 0 0 0 0 0 0 0 0 0 0 -0 0 0 0 0 0 0 0 0 0 0
0 0 0 0 0 0 0 0 -0 -0 0 0 0 0 0 0 0 0 0 0 0 0 0 0 0 0 0 0 0 0 0 0 0 0 0 0 0 0 0 0 0 0 0 0
0 0 0 0 0 0 0 0 -0 -0 0 0 0 0 0 0 0 0 0 0 0 0 0 0 0 0 0 0 0 0 0 0 0 0 0 0 0 0 0 0 0 0 0 0
0 0 0 0 0 0 0 0 0 0 0 0 0 0 0 0 0 0 0 0 0 0 0 0 0 0 0 0 0 0 0 0 0 0 0 0 0 0 0 0 0 0 0 0
Wind_Speed
10 10 14 16 17 9 7 9 9 7 4 8 13 17 15 12 13 14 12 11 11 10 7 6 7 7 7 7 7 8 8 8 7 6 6 5 4 4 3 2 2 3 3 3
9 16 15 10 12 11 10 11 10 5 4 7 12 18 16 13 14 12 12 12 11 9 8 7 6 7 7 7 8 8 8 8 8 6 5 4 4 3 2 2 2 3 3 3
15 6 10 13 13 14 14 14 11 7 5 6 10 14 12 10 10 10 10 10 10 10 10 8 8 7 7 7 7 7 8 8 8 8 5 5 4 3 3 3 2 2 2 3
14 8 9 14 16 15 13 11 10 8 7 5 5 9 8 7 8 9 9 9 10 9 9 8 8 8 7 6 6 6 7 8 8 8 7 8 6 5 4 3 2 2 2 2
11 10 13 15 14 15 7 5 8 9 8 8 9 10 9 6 10 9 8 8 8 9 9 8 8 8 6 5 5 5 6 7 8 8 8 8 6 5 4 4 3 3 2 2
9 7 10 10 9 11 7 6 4 4 5 10 12 12 10 7 8 7 7 7 7 8 8 8 7 6 5 5 5 5 6 6 7 8 8 8 8 7 6 5 4 3 2 1
9 10 7 6 9 11 10 8 5 6 8 9 6 11 11 5 6 7 6 6 7 7 7 7 7 7 6 6 6 6 6 6 6 7 7 8 8 8 7 6 5 3 2 2
11 10 13 11 12 12 15 13 9 8 8 5 7 11 6 2 4 5 5 5 5 6 6 6 7 6 6 6 6 6 6 6 6 6 6 6 6 5 4 5 4 3 2 2
9 7 6 9 8 11 12 13 7 3 3 6 8 7 7 6 6 6 6 5 5 5 5 5 6 6 6 6 6 6 6 6 6 6 6 5 5 5 4 4 3 2 2 2
5 5 6 7 7 8 7 9 7 7 7 9 8 9 7 7 7 7 6 6 5 4 4 4 5 5 5 5 5 6 6 6 6 6 5 4 4 4 3 3 3 2 2 1
5 5 5 8 11 13 10 10 8 7 6 7 7 5 2 4 5 6 5 5 4 4 4 4 5 5 5 5 5 6 6 6 6 5 5 5 4 3 3 2 2 2 2 1
4 3 5 7 4 6 10 11 11 8 7 7 6 3 2 2 2 3 3 3 3 3 2 3 4 5 5 5 5 5 5 5 5 5 4 4 4 3 2 2 1 1 1 1
4 5 5 5 5 5 9 11 12 7 5 7 8 6 2 1 1 2 2 2 2 2 2 2 4 4 5 5 5 5 5 5 5 5 4 4 3 3 2 1 1 1 0 1
3 4 7 7 4 7 8 11 13 11 9 10 13 10 6 4 4 3 3 3 3 2 2 3 3 4 4 5 5 5 4 4 4 4 4 4 3 3 2 1 1 0 1 1
3 4 6 6 4 6 8 12 14 16 15 12 12 14 11 7 6 5 4 3 3 3 3 3 3 3 4 5 5 4 4 4 4 4 4 3 3 2 2 1 1 1 1 1
3 3 4 5 6 6 9 12 15 17 17 17 15 16 11 6 5 5 5 4 5 4 4 3 3 4 4 5 4 4 4 4 4 4 3 3 3 2 2 1 1 1 1 2
3 3 3 4 3 4 10 12 14 14 13 14 16 14 7 7 6 6 5 5 5 5 4 4 4 4 4 4 4 4 4 4 4 3 3 2 2 2 1 1 1 2 2 3
6 5 3 3 4 9 3 1 7 11 11 11 11 9 7 6 5 5 4 5 5 4 4 4 3 3 3 3 4 4 4 4 4 3 2 2 2 1 1 1 2 2 2 3
9 7 4 4 5 6 3 1 3 7 7 7 9 6 4 2 2 3 2 3 3 3 2 2 3 3 4 4 4 4 4 4 3 2 2 1 1 1 1 2 2 2 2 3
6 7 5 5 5 6 1 2 2 4 5 2 4 4 3 2 3 2 1 1 1 1 1 2 3 4 4 3 4 4 4 3 2 2 1 1 1 2 2 2 2 2 2 3
4 5 7 7 6 4 3 3 2 5 1 2 1 1 2 3 2 1 1 1 1 2 2 3 3 3 3 3 4 4 3 2 2 1 1 1 1 1 1 2 2 2 2 3
3 4 5 4 5 4 3 1 2 2 4 3 2 1 1 1 1 1 1 0 1 2 2 3 3 3 3 3 4 3 3 2 2 1 1 1 0 1 1 1 2 2 3 3
3 2 2 3 2 2 0 1 2 3 3 3 3 2 1 1 0 0 0 0 1 2 2 2 3 3 3 2 3 3 2 2 2 1 1 0 0 1 1 2 2 2 2 3
2 2 2 2 3 2 2 3 4 4 4 3 3 2 1 0 0 0 0 0 1 1 2 2 3 3 3 2 2 2 2 2 2 1 1 0 0 1 2 2 2 2 3 3
3 2 3 4 4 3 3 4 4 4 4 4 3 3 1 1 1 0 0 0 1 1 2 2 3 3 2 2 2 2 2 2 1 1 0 0 1 1 2 2 2 3 3 4
3 4 4 4 3 3 4 4 4 3 3 3 3 3 2 0 1 1 0 1 1 1 2 2 3 3 2 2 2 2 1 1 1 0 0 1 1 2 2 2 3 4 5 6
Wind_Direction
183 202 209 206 211 233 219 222 233 235 230 246 252 261 263 255 250 248 245 240 235 233 228 216 209 206 204 200 194 192 189 183 177 175 175 176 177 175 170 168 173 180 180 182
187 221 220 211 209 217 219 227 236 245 238 256 269 270 267 254 246 246 244 238 230 225 218 208 200 197 199 198 194 194 191 187 185 183 179 179 172 172 168 165 178 187 185 185
210 208 201 198 201 210 222 229 231 239 260 250 279 270 247 239 240 239 238 235 230 223 218 208 203 198 196 197 196 195 193 189 186 180 171 163 160 165 173 178 181 191 189 194
225 214 192 200 208 210 225 225 230 232 242 248 254 279 251 237 235 228 227 225 224 219 216 209 203 199 199 198 191 192 191 189 184 181 181 179 181 183 190 183 181 189 198 202
213 199 196 206 210 206 216 194 208 221 235 257 235 255 263 229 233 224 222 221 216 213 209 206 202 199 196 190 187 186 185 186 184 185 184 184 184 180 174 174 177 187 200 211
225 205 211 215 204 196 167 152 167 205 226 246 228 230 260 222 230 225 222 215 211 209 206 206 201 192 190 183 180 182 180 182 182 182 183 185 182 180 177 182 183 189 196 215
214 216 208 196 175 180 186 176 184 198 212 236 200 224 249 241 233 232 222 209 206 205 202 199 193 191 189 184 178 179 179 181 182 182 185 186 186 186 187 187 191 194 200 221
201 210 198 196 199 189 197 202 208 215 221 210 198 232 243 241 242 236 228 209 200 199 198 198 195 192 187 182 178 177 178 179 180 181 183 184 185 189 190 193 194 198 209 222
204 207 176 192 200 195 190 210 231 254 274 250 224 238 263 228 222 214 210 200 197 197 197 195 194 191 186 183 181 178 176 176 178 178 176 178 178 179 183 189 196 198 205 217
214 204 180 176 183 207 214 185 189 209 213 234 234 234 227 194 198 196 201 201 196 193 191 194 193 188 185 181 178 177 176 173 173 174 172 171 173 171 175 180 186 189 194 215
211 195 171 178 199 190 182 191 201 202 230 240 242 230 197 219 203 200 198 200 195 190 191 191 184 178 174 172 172 172 170 168 167 167 166 165 159 159 166 170 174 173 182 206
203 207 202 204 206 221 207 202 196 200 207 230 255 247 111 237 222 209 196 192 200 198 188 181 172 168 167 166 165 163 164 163 163 159 157 153 148 155 161 159 162 167 178 240
177 193 184 184 190 194 215 213 211 217 212 215 230 237 135 212 237 230 222 223 210 197 183 174 170 170 167 164 163 160 160 159 155 153 150 148 151 153 153 150 151 177 197 287
196 216 229 223 210 179 201 208 209 210 221 227 235 250 248 255 263 261 246 245 235 212 196 191 182 175 169 165 162 158 155 154 153 153 151 153 155 154 147 143 162 234 275 296
212 227 239 255 241 202 211 213 211 220 228 236 244 249 259 263 266 260 245 233 224 213 198 199 196 183 171 165 163 158 153 151 154 157 158 157 155 153 153 165 186 228 278 291
221 235 232 241 235 227 235 231 224 228 233 240 249 256 263 273 269 251 244 231 219 211 204 201 194 178 174 170 165 159 157 152 154 157 158 157 161 162 169 186 216 258 280 283
209 210 218 232 224 248 246 233 226 225 226 230 239 247 250 259 258 254 247 233 227 212 203 198 194 185 175 169 162 158 153 146 148 151 154 158 162 171 192 204 229 255 271 281
213 210 218 212 202 231 238 215 228 230 234 233 241 250 251 260 274 277 257 234 225 216 204 190 181 170 159 149 146 140 140 142 143 145 151 152 165 185 213 240 252 262 270 280
215 205 203 208 226 254 255 244 221 220 237 236 236 245 251 255 269 262 258 230 228 223 206 180 165 157 150 147 144 139 137 138 142 147 150 151 176 201 222 243 261 268 272 282
200 208 212 209 226 239 286 353 280 217 236 241 234 224 222 206 238 235 86 109 132 138 142 143 143 142 144 144 143 141 141 146 156 159 159 171 209 227 239 253 267 273 276 283
177 200 217 222 232 256 337 320 212 205 295 29 307 224 228 251 273 20 45 63 79 86 109 128 137 145 147 146 148 147 147 159 160 152 163 199 228 247 260 271 273 277 283 287
196 197 207 216 225 243 20 99 214 331 350 341 338 320 302 316 65 64 14 31 84 90 101 120 135 136 135 142 147 149 152 148 141 153 171 193 262 296 279 274 283 288 288 288
226 240 237 224 239 358 19 288 325 341 338 334 334 338 337 311 283 21 12 77 87 92 103 119 129 124 119 129 145 150 143 131 140 149 152 102 356 315 286 277 283 288 285 284
252 274 238 251 262 289 309 333 343 345 344 353 354 345 336 281 290 334 23 97 105 95 109 123 124 120 114 114 121 135 132 142 154 157 144 63 341 314 301 295 283 281 282 284
269 236 239 249 266 290 295 318 337 350 355 5 4 353 327 174 212 232 183 155 131 110 108 118 121 118 113 106 103 101 114 136 143 142 121 339 309 290 291 292 290 288 287 292
243 238 242 255 270 271 292 324 336 339 340 343 349 351 344 11 176 167 175 145 122 114 109 117 119 117 112 103 87 72 81 117 135 193 284 288 282 284 285 289 295 291 289 301